Weather History for Buffalo, NY

Change the Weather History Date:

Sunday, March 16, 2014

  Actual Average Record
Temperature  
Mean Temperature 17 °F 34 °F  
Max Temperature 21 °F 42 °F 70 °F (1990)
Min Temperature 12 °F 26 °F 1 °F (1885)
Degree Days  
Heating Degree Days 48 31  
Month to date heating degree days 681 539  
Since 1 July heating degree days 5787 5283  
Cooling Degree Days 0 0  
Month to date cooling degree days 0 0  
Year to date cooling degree days 0 0  
Moisture  
Dew Point 6 °F    
Average Humidity 65    
Maximum Humidity 80    
Minimum Humidity 49    
Precipitation  
Precipitation T in 0.09 in 1.02 in (1956)
Month to date precipitation 1.25 1.44  
Year to date precipitation 8.03 7.11  
Snow  
Snow 0.20 in 0.40 in 14.30 in (2004)
Month to date snowfall 16.6 8.0  
Since 1 July snowfall 120.8 86.8  
Snow Depth 1.00 in    
Sea Level Pressure  
Sea Level Pressure 30.30 in    
Wind  
Wind Speed 8 mph (NNW)    
Max Wind Speed 18 mph    
Max Gust Speed 24 mph    
Visibility 9 miles    
Events Snow    
T = Trace of Precipitation, MM = Missing Value Source: NWS Daily Summary

Daily Weather History Graph

Daily Weather History Graph

Search for Another Location

Airport:

Trip Planner

Search our weather history database for the weather conditions in past years. The results will help you decide how hot, cold, wet, or windy it might be!

Date:

Astronomy

Mar. 16, 2014 Rise Set
Actual Time 7:25 AM EDT 7:22 PM EDT
Civil Twilight 6:57 AM EDT 7:50 PM EDT
Nautical Twilight 6:24 AM EDT 8:23 PM EDT
Astronomical Twilight 5:50 AM EDT 8:57 PM EDT
Moon 7:39 PM EDT (3/16) 7:07 AM EDT (3/16)
Length of Visible Light 12h 53m
Length of Day
11h 57m
Full, 100% of the Moon is Illuminated
Mar 16
Full
Mar 16
Full
Mar 23
Last Quarter
Mar 30
New
Apr 7
First Quarter

Hourly Weather History & Observations

Time (EDT) Temp. Windchill Dew Point Humidity Pressure Visibility Wind Dir Wind Speed Gust Speed Precip Events Conditions
12:54 AM 21.0 °F 10.6 °F 10.9 °F 65% 30.21 in 10.0 mi WNW 9.2 mph - N/A   Partly Cloudy
1:54 AM 19.9 °F 9.3 °F 10.0 °F 65% 30.23 in 10.0 mi WNW 9.2 mph - N/A   Partly Cloudy
2:54 AM 19.9 °F 9.3 °F 10.0 °F 65% 30.25 in 10.0 mi WNW 9.2 mph - N/A   Partly Cloudy
3:11 AM 19.9 °F 9.3 °F 10.0 °F 65% 30.21 in 10.0 mi WNW 9.2 mph - N/A   Mostly Cloudy
3:32 AM 19.9 °F 7.3 °F 10.0 °F 65% 30.21 in 10.0 mi NW 12.7 mph - N/A   Mostly Cloudy
3:54 AM 19.9 °F 9.3 °F 10.0 °F 65% 30.24 in 10.0 mi WNW 9.2 mph - N/A   Mostly Cloudy
4:06 AM 19.0 °F 9.0 °F 10.0 °F 68% 30.21 in 9.0 mi WNW 8.1 mph - 0.00 in Snow Light Snow
4:54 AM 19.0 °F 9.0 °F 10.9 °F 71% 30.27 in 6.0 mi WNW 8.1 mph - 0.00 in Snow Light Snow
5:17 AM 19.9 °F 12.1 °F 12.9 °F 74% 30.24 in 8.0 mi WNW 5.8 mph - 0.00 in Snow Light Snow
5:49 AM 19.4 °F 7.9 °F 12.2 °F 74% 30.25 in 5.0 mi NW 10.4 mph - 0.00 in Snow Light Snow
5:54 AM 19.0 °F 7.5 °F 12.0 °F 74% 30.29 in 5.0 mi NW 10.4 mph - 0.00 in Snow Light Snow
6:20 AM 18.0 °F 5.4 °F 12.0 °F 78% 30.26 in 2.5 mi North 11.5 mph - 0.00 in Snow Light Snow
6:33 AM 17.1 °F 3.6 °F 12.9 °F 84% 30.27 in 1.8 mi NNW 12.7 mph - 0.00 in Snow Light Snow
6:54 AM 17.1 °F 5.0 °F 12.0 °F 81% 30.32 in 2.5 mi North 10.4 mph - 0.00 in Snow Light Snow
7:04 AM 16.0 °F 2.9 °F 10.0 °F 77% 30.27 in 4.0 mi North 11.5 mph - 0.00 in Snow Light Snow
7:29 AM 16.0 °F 0.1 °F 7.0 °F 68% 30.29 in 10.0 mi NNW 17.3 mph - 0.00 in   Mostly Cloudy
7:54 AM 16.0 °F 1.1 °F 6.1 °F 65% 30.34 in 10.0 mi North 15.0 mph - 0.00 in   Mostly Cloudy
8:54 AM 16.0 °F 2.9 °F 5.0 °F 62% 30.37 in 10.0 mi NNW 11.5 mph - N/A   Scattered Clouds
9:54 AM 16.0 °F 1.7 °F 3.9 °F 59% 30.39 in 10.0 mi NNW 13.8 mph - N/A   Mostly Cloudy
10:54 AM 16.0 °F 1.7 °F 3.9 °F 59% 30.40 in 10.0 mi North 13.8 mph 20.7 mph N/A   Mostly Cloudy
11:54 AM 17.1 °F 5.0 °F 5.0 °F 59% 30.41 in 10.0 mi North 10.4 mph - N/A   Mostly Cloudy
12:54 PM 16.0 °F 5.3 °F 6.1 °F 65% 30.41 in 8.0 mi NNW 8.1 mph - 0.00 in Snow Light Snow
1:54 PM 17.1 °F 5.0 °F 3.9 °F 56% 30.40 in 10.0 mi NNW 10.4 mph - 0.00 in   Mostly Cloudy
2:54 PM 18.0 °F 6.1 °F 3.0 °F 52% 30.38 in 10.0 mi North 10.4 mph - N/A   Scattered Clouds
3:54 PM 17.1 °F 7.6 °F 1.9 °F 52% 30.36 in 10.0 mi North 6.9 mph - N/A   Partly Cloudy
4:54 PM 18.0 °F 9.8 °F 1.0 °F 48% 30.34 in 10.0 mi NNW 5.8 mph - N/A   Partly Cloudy
5:54 PM 18.0 °F 11.1 °F 1.9 °F 50% 30.31 in 10.0 mi Variable 4.6 mph - N/A   Partly Cloudy
6:54 PM 17.1 °F 10.0 °F 1.0 °F 50% 30.31 in 10.0 mi NE 4.6 mph - N/A   Scattered Clouds
7:54 PM 16.0 °F 8.8 °F 1.9 °F 54% 30.31 in 10.0 mi North 4.6 mph - N/A   Scattered Clouds
8:54 PM 15.1 °F 5.2 °F 1.0 °F 54% 30.31 in 10.0 mi North 6.9 mph - N/A   Mostly Cloudy
9:54 PM 14.0 °F 6.5 °F 1.0 °F 56% 30.30 in 10.0 mi NNE 4.6 mph - N/A   Scattered Clouds
10:54 PM 14.0 °F 6.5 °F 1.9 °F 59% 30.29 in 10.0 mi NNE 4.6 mph - N/A   Scattered Clouds
11:54 PM 14.0 °F 8.2 °F 1.9 °F 59% 30.27 in 10.0 mi ENE 3.5 mph - N/A   Mostly Cloudy